Index of /img/

NameLast ModifiedSize
UpParent Directory
[IMG]sherwood-logo.png2021-04-13 08:35 4k
[IMG]50x50-CZ.svg2021-04-13 08:36 4k
[IMG]logo.png2021-04-13 08:36 4k
[IMG]ski-arena-icons.svg2021-04-16 09:18 88k
[IMG]50x50-weather-light.svg2021-04-16 09:18 4k
[IMG]bcg-home-banner.jpg2021-04-16 09:18 268k
[IMG]season-graph-mobile.svg2021-04-16 09:18 96k
[IMG]routes-map.jpg2021-04-16 09:18 56k
[IMG]cards-foto4.png2021-04-16 09:18 92k
[IMG]cards-foto3.png2021-04-16 09:18 80k
[IMG]season-graph.svg2021-04-16 09:18 8k
[IMG]hero-banner-bottom-winter.jpg2021-04-16 09:18 324k
[IMG]logo-skiarenakarlov.svg2021-04-16 09:18 12k
[IMG]cards-foto2.png2021-04-16 09:18 84k
[IMG]cards-foto1.png2021-04-16 09:18 104k
[IMG]photo-post-01.png2021-04-16 09:18 184k
[IMG]280x187-illustration-02.svg2021-04-16 09:18 24k
[IMG]owl.video.play.png2021-04-16 09:18 8k
[IMG]280x187-illustration-16.svg2021-04-16 09:18 20k
[IMG]280x187-illustration-14.svg2021-04-16 09:18 20k
[IMG]280x187-illustration-15.svg2021-04-16 09:18 20k
[IMG]24x24-star-empty.svg2021-04-16 09:18 4k
[IMG]280x187-illustration-01.svg2021-04-16 09:18 24k
[IMG]logo-sherwood.svg2021-04-16 09:18 8k
[IMG]hero-banner-bottom-summer.jpg2021-04-16 09:18 128k
[IMG]50x50-snow-light.svg2021-04-16 09:18 4k
[IMG]280x187-illustration-10.svg2021-04-16 09:18 136k
[IMG]280x187-illustration-07.svg2021-04-16 09:18 36k
[IMG]50x50-snow-new.svg2021-04-16 09:18 8k
[IMG]100x100-camera-picture.svg2021-04-16 09:18 4k
[IMG]280x187-illustration-09.svg2021-04-16 09:18 24k
[IMG]100x100-snow.svg2021-04-16 09:18 4k
[IMG]280x187-illustration-08.svg2021-04-16 09:18 20k
[IMG]186x196-illustration-summer-for-footer.svg2021-04-16 09:19 20k
[IMG]280x187-illustration-18.svg2021-04-16 09:19 96k
[IMG]50x50-ski-boot.svg2021-04-16 09:19 4k
[IMG]50x50-weather.svg2021-04-16 09:19 4k
[IMG]live-camera.jpg2021-04-16 09:19 180k
[IMG]50x50-snow.svg2021-04-16 09:19 4k
[IMG]50x50-path.svg2021-04-16 09:19 4k
[IMG]cta-signs.png2021-04-16 09:19 12k
[IMG]partner-logo.svg2021-04-16 09:19 36k
[IMG]hero-banner.jpg2021-04-16 09:19 184k
[IMG]cta-transport.png2021-04-16 09:19 16k
[IMG]bcg-foto280x187-01.png2021-04-16 09:19 88k
[IMG]meteogram-48-hr.jpg2021-04-16 09:19 92k
[IMG]50x50-phone-green.svg2021-04-16 09:19 4k
[IMG]bcg-foto280x187-02.png2021-04-16 09:19 68k
[IMG]cta-eskipas-qrcode.png2021-04-16 09:19 12k
[IMG]hero-banner-skiing.jpg2021-04-16 09:19 108k
[IMG]bcg-foto280x187-03.png2021-04-16 09:19 64k
[IMG]100x100-areals.svg2021-04-16 09:19 4k
[IMG]174x58-illustration-01.svg2021-04-16 09:19 4k
[IMG]bcg-foto280x187-04.png2021-04-16 09:19 84k
[IMG]174x58-illustration-03.svg2021-04-16 09:19 4k
[IMG]accommodations-detail.jpg2021-04-16 09:19 76k
[IMG]174x58-illustration-02.svg2021-04-16 09:19 4k
[IMG]cta-map.png2021-04-16 09:19 28k
Proudly Served by LiteSpeed Web Server at invitrodigital.com.br Port 80